Location: Eboldshausen
(51.7766°N, 10.0050°E)
Time: 06:32:33
(UTC+00:00)

Daily predictions for brighter satellites

Satellite Brightness Start Highest point End
(mag) Time Altitude Azimuth Time Altitude Azimuth Time Altitude Azimuth
SAR-Lupe-4 4.1 16:01:59 10° SE 16:05:17 36° ENE 16:08:37 10° N
Cosmos 2221 Rocket 3.6 16:00:49 10° N 16:05:22 85° E 16:09:48 10° S
YAOGAN 1 4.1 16:07:52 10° E 16:10:19 15° ENE 16:12:46 10° NNE
ATLAS 2AS CENTAUR R/B 3.7 16:05:24 10° WNW 16:11:24 30° N 16:17:18 10° ENE
Cosmos 2061 Rocket 4.4 16:07:53 10° SSE 16:13:43 42° E 16:19:31 10° NNE
SJ-12 4.2 16:10:32 10° SE 16:14:03 37° ENE 16:17:35 10° N
Cosmos 1340 Rocket 3.2 16:13:44 10° SSW 16:17:33 62° WNW 16:21:23 10° N
ARIANE 6 FM1 Upper Stage 3.5 16:14:13 10° WSW 16:17:59 40° NNW 16:21:45 10° NE
ARIANE 5 R/B 2.5 16:14:37 10° SE 16:19:28 57° ENE 16:24:23 10° N
Cosmos 1725 Rocket 4.0 16:13:36 10° S 16:19:49 70° E 16:26:07 10° NNE
Cosmos 2233 Rocket 4.2 16:15:27 10° SSE 16:21:31 52° E 16:27:37 10° NNE
Cosmos 2058 4.2 16:20:39 10° NNE 16:23:20 17° ENE 16:26:02 10° ESE
Resurs 01 Rocket 3.5 16:26:28 11° ENE 16:26:54 11° NE 16:28:04 10° NE
Cosmos 1441 Rocket 3.2 16:26:06 10° NNW 16:29:27 70° W 16:32:47 10° S
Aureole 3 Rocket 4.2 16:28:50 10° ESE 16:29:49 12° E 16:29:49 12° E
SMAP 3.0 16:25:32 10° SSE 16:30:11 79° ENE 16:34:52 10° NNW
Cosmos 2173 Rocket 4.3 16:24:12 10° SSW 16:30:23 70° WNW 16:36:31 10° N
SAR-Lupe-5 4.2 16:27:58 10° NNE 16:30:35 83° WNW 16:33:13 10° SSW
Cosmos 1484 Rocket 4.3 16:32:12 10° SSW 16:35:28 37° W 16:38:47 10° NNW
USA 215 4.0 16:30:07 10° SE 16:36:32 57° SW 16:42:58 10° WNW
Cosmos 2227 Rocket 4.4 16:33:57 10° NW 16:36:44 14° NNW 16:39:31 10° N
CORIOLIS 4.2 16:32:21 10° SSE 16:37:44 86° WSW 16:43:07 10° NNW
Cosmos 2082 Rocket 2.7 16:33:40 10° NNW 16:38:53 37° NE 16:44:04 10° ESE
Cosmos 1812 4.3 16:38:55 10° ESE 16:39:11 11° ESE 16:39:11 11° ESE
SL-08 R/B 4.4 16:34:48 10° S 16:40:53 79° E 16:46:59 10° NNE
Cosmos 1802 Rocket 4.3 16:35:55 10° SSW 16:42:21 78° W 16:48:49 10° N
Cosmos 1869 3.9 16:39:34 10° SSE 16:42:35 27° E 16:45:12 12° NE
Landsat 7 3.7 16:38:37 10° SSE 16:43:15 76° ENE 16:47:56 10° NNW
AQUARIUS 4.1 16:38:58 10° SSE 16:43:19 63° ENE 16:47:42 10° N
SPOT 1/Viking Rocket 3.9 16:39:32 10° SE 16:44:21 42° ENE 16:49:15 10° N
Cosmos 1782 Rocket 3.5 16:41:02 10° S 16:45:27 72° E 16:49:54 10° NNE
Cosmos 2278 Rocket 3.1 16:40:55 10° SSE 16:45:34 27° ESE 16:49:10 15° NE
Cosmos 1943 Rocket 3.0 16:41:47 10° SSE 16:46:30 29° ESE 16:50:08 15° NE
Cosmos 2084 Rocket 3.4 16:43:27 10° SSW 16:47:35 66° SE 16:50:45 17° NE
Cosmos 407 Rocket 4.2 16:43:06 10° SSE 16:47:42 33° ESE 16:51:44 13° NE
Cosmos 2344 4.1 16:41:26 10° NW 16:48:34 46° NNE 16:56:03 14° E
Timation 1 Rocket 4.3 16:42:57 10° NNW 16:48:54 63° NE 16:54:49 10° SE
IRS-1C 4.2 16:44:54 10° SSE 16:50:13 85° WSW 16:55:36 10° NNW
Cosmos 1300 Rocket 3.5 16:48:43 10° S 16:53:07 88° WNW 16:57:32 10° N
ATLAS 5 CENTAUR R/B 2.5 16:50:39 10° NW 16:54:50 55° SW 17:00:00 10° SSE
Tsikada Rocket 4.3 16:51:04 10° NNW 16:57:30 76° W 17:03:50 10° S
ATLAS CENTAUR R/B 2.3 16:55:49 10° WSW 16:58:59 33° NW 17:01:34 14° NNE
Cosmos 1975 Rocket 3.1 16:57:37 10° NNW 17:01:59 83° W 17:06:20 10° S
BREEZE-M DEB (TANK) 3.5 16:59:41 10° SSW 17:02:03 37° SE 17:04:22 22° E
SL-16 R/B 3.3 16:57:12 10° N 17:03:17 54° WNW 17:09:20 10° SW
Spot 4 Rocket 4.1 16:59:07 10° SE 17:04:03 51° ENE 17:08:59 10° N
Cosmos 2016 Rocket 4.5 16:58:08 10° SSW 17:04:24 66° WNW 17:10:45 10° N
COSMOS 2406 3.8 17:00:24 10° NNW 17:05:35 35° NE 17:08:32 21° E
MOS 1 Rocket 3.0 17:02:37 10° SSE 17:06:54 76° ENE 17:11:24 10° N
Cosmos 2263 Rocket 4.4 17:05:51 10° NW 17:08:32 13° NNW 17:11:14 10° N
UNK 4.2 17:04:58 10° N 17:09:33 64° WNW 17:14:06 10° SSW
Cosmos 1844 Rocket 4.4 17:06:11 10° W 17:10:53 27° NW 17:15:37 10° NNE
Cosmos 921 Rocket 4.3 17:06:52 10° SW 17:11:00 40° WNW 17:15:13 10° N
COSMO-SKYMED 1 3.2 17:10:37 28° ENE 17:11:28 30° E 17:15:07 10° SSE
SKYMED 2 3.9 17:08:25 11° NNE 17:12:25 44° E 17:16:34 10° S
USA 281 3.8 17:09:14 20° E 17:13:01 35° NE 17:18:51 10° NNW
BREEZE-M DEB (TANK) 3.0 17:12:42 10° SW 17:15:14 40° SSE 17:17:12 26° E
ISS -2.3 17:13:34 10° SSW 17:16:17 23° SSE 17:16:32 23° SE
CZ-4 R/B 4.2 17:13:10 10° SSE 17:17:08 80° ENE 17:21:08 10° NNW
Cosmos 1763 Rocket 3.5 17:11:52 10° NNW 17:17:08 82° WSW 17:22:18 10° SSE
CZ-2D R/B 4.4 17:14:35 10° SSW 17:17:33 37° W 17:20:32 10° NNW
Cosmos 540 Rocket 3.4 17:12:36 10° NNW 17:17:47 88° ENE 17:22:54 10° SSE
Meteor 2-3 Rocket 4.4 17:13:42 10° N 17:18:49 32° ENE 17:20:43 26° E
CZ-4C R/B 3.1 17:15:21 10° W 17:19:52 38° NNW 17:24:06 16° NE
Cosmos 1833 Rocket 4.2 17:15:32 10° NW 17:20:42 38° WSW 17:25:51 10° S
Cosmos 1140 Rocket 3.6 17:20:09 10° SSW 17:25:20 73° WNW 17:30:24 11° NNE
Cosmos 1269 Rocket 4.3 17:20:36 10° SW 17:25:50 66° WNW 17:31:07 10° NNE
Helios 1A Rocket 3.6 17:28:22 28° SSE 17:28:22 28° SSE 17:30:22 10° S
NOAA 6 4.0 17:24:47 10° SE 17:29:48 56° ENE 17:34:50 10° N
Cosmos 1602 2.9 17:27:39 10° N 17:30:33 72° NE 17:30:33 72° NE
RESURS DK-1 2.6 17:27:07 10° NW 17:31:07 67° WSW 17:35:05 10° SSE
SL-12 R/B(2) 4.3 17:23:56 10° SSW 17:31:51 66° SE 17:39:17 19° NE
Nadezhda 4 Rocket 3.9 17:25:40 10° N 17:31:56 62° ENE 17:38:07 10° SSE
Cosmos 2297 Rocket 4.4 17:33:44 10° N 17:35:15 11° N 17:36:45 10° NNE
Cosmos 2251 Rocket 3.7 17:33:19 10° S 17:38:23 49° ESE 17:39:54 37° ENE
Cosmos 1862 3.1 17:35:26 10° N 17:38:33 56° NNE 17:38:33 56° NNE
Geosat 3.9 17:41:31 21° SE 17:44:56 82° ENE 17:49:58 10° NNW
YAOGAN 1 2.5 17:41:20 10° SSE 17:45:35 84° WSW 17:49:53 10° NNW
PSLV R/B 3.3 17:42:25 10° SSE 17:46:28 83° WSW 17:50:32 10° NNW
Timation 2 Rocket 4.1 17:43:33 10° SSW 17:50:26 82° ESE 17:55:09 22° NE
Resurs 1-3 3.6 17:48:13 10° S 17:52:31 78° WSW 17:56:51 10° NNW
CZ-2D R/B 4.2 17:49:22 10° S 17:53:23 52° W 17:57:31 10° NNW
Cosmos 1428 Rocket 4.4 17:47:12 10° N 17:53:29 73° ENE 17:59:46 10° SSE
Cosmos 841 Rocket 3.4 17:49:25 10° NNW 17:54:40 63° ENE 17:55:38 52° ESE
Cosmos 489 Rocket 4.3 17:49:38 10° NNW 17:55:57 81° ENE 18:00:28 20° SSE
ARIANE 6 FM1 Upper Stage 4.5 17:55:00 10° NW 17:57:57 20° N 17:58:12 19° N
Cosmos 2058 3.4 17:55:57 10° NNW 17:59:50 55° W 18:03:43 10° S
SJ 16-02 2.8 17:55:58 10° S 17:57:46 23° S 17:57:46 23° S
Okean 2 Rocket 4.0 17:55:57 10° S 17:58:32 34° SSE 17:58:32 34° SSE
Resurs 01 Rocket 2.4 18:03:53 39° N 18:03:53 39° N 18:06:48 10° N
Cosmos 1536 Rocket 3.7 17:59:14 10° NNW 18:03:41 73° W 18:08:04 10° S
ATLAS 2AS CENTAUR R/B 2.9 17:57:16 10° NW 18:03:51 47° NNE 18:05:02 43° ENE
Cosmos 468 Rocket 4.5 18:01:33 10° NNW 18:06:42 60° WSW 18:11:45 10° S
Cosmos 44 Rocket 3.2 18:02:36 10° SSW 18:07:12 70° SE 18:07:12 70° SE
Cosmos 1190 Rocket 3.8 18:10:19 10° SSW 18:15:37 80° ESE 18:15:50 77° ENE
Aureole 3 Rocket 4.3 18:13:58 10° SW 18:16:00 27° W 18:16:00 27° W
Cosmos 1464 Rocket 4.1 18:13:17 10° SSW 18:19:36 77° W 18:25:52 10° N
Cosmos 2082 Rocket 2.9 18:17:43 10° NW 18:23:09 51° WSW 18:27:17 17° S
Cosmos 2227 Rocket 4.5 18:22:02 10° N 18:23:31 11° N 18:23:51 11° NNE
CARTOSAT-1 4.5 18:27:27 43° NW 18:27:27 43° NW 18:30:26 10° NNW
Cosmos 2278 Rocket 2.5 18:23:38 10° SW 18:29:15 63° NW 18:31:01 42° N
Cosmos 407 Rocket 4.4 18:24:32 10° SW 18:29:29 44° WNW 18:31:52 27° N
Cosmos 1954 Rocket 4.3 18:24:23 10° SSW 18:28:34 57° SSW 18:28:34 57° SSW
Cosmos 1943 Rocket 2.6 18:24:20 10° SW 18:29:54 60° NW 18:31:40 41° N
Cosmos 2034 Rocket 3.9 18:25:08 10° S 18:31:21 89° WNW 18:37:40 10° N
ATLAS CENTAUR R/B 3.9 18:33:30 10° NW 18:34:03 11° NNW 18:34:03 11° NNW
Cosmos 1092 Rocket 4.0 18:40:15 10° NNW 18:46:33 80° W 18:47:14 70° SSW
COSMO-SKYMED 1 4.1 18:46:58 32° WNW 18:46:58 32° WNW 18:50:29 10° SW
COSMOS 2406 3.7 18:44:36 10° NW 18:50:10 57° WSW 18:50:37 55° SW
ISS -0.4 18:49:23 10° WSW 18:49:28 11° WSW 18:49:28 11° WSW
Cosmos 2026 Rocket 4.3 18:49:56 10° NNW 18:55:56 62° W 18:57:33 46° SSW
USA 281 3.3 18:56:07 61° SSW 18:57:08 70° WSW 19:03:44 10° NNW
Meteor 2-3 Rocket 4.5 18:56:44 10° NNW 19:02:15 50° W 19:03:03 46° WSW
Cosmos 2344 3.9 18:55:45 10° NW 19:03:36 75° SW 19:06:06 53° SSE
CZ-4C R/B 3.8 19:04:55 10° NW 19:09:03 27° N 19:09:03 27° N
Cosmos 2297 Rocket 4.5 19:17:23 10° NNW 19:18:34 14° N 19:18:34 14° N
ATLAS 2AS CENTAUR R/B 3.8 19:48:21 10° NW 19:52:28 38° WNW 19:52:28 38° WNW
